Вернуться в каталог

STARLINK-3692

АктивенСвязьVLEO
NORAD 51958·PAYLOAD·🇺🇸 United States

Запущен Mar 9, 2022 с Cape Canaveral Space Force Station

Loading…

Ближайшие Пролёты (ближайшие 24 часа)

TLE

СвежийSource: CelesTrak SupGP

Эпоха: Sep 15, 2026, 02:35 UTC

1 51958C 22025C   26258.10812500 -.00037254  00000+0 -11981-2 0  2581
2 51958  53.1589 212.0474 0001338  86.9907  32.6006 15.31718037    19

Отслеживайте STARLINK-3692 в реальном времени с AllMySat

Download on the App Store